| time (UTC) | temp F | wind direction | speed MPH | gust MPH | rain 1hr in | rain 24hr in | rain mn in | humidity % | barometer mb |
| 20260905201020 | 77 | 0.0 | 0.0 | 0.04 | 0.04 | 0.04 | 92 | 1012.5 | |
| 20260905200022 | 77 | 0.0 | 1.0 | 0.04 | 0.04 | 0.04 | 90 | 1013.2 | |
| 20260905195041 | 78 | 0.0 | 0.0 | 0.03 | 0.03 | 0.03 | 89 | 1013.2 | |
| 20260905194040 | 79 | 0.0 | 0.0 | 0.03 | 0.03 | 0.03 | 86 | 1013.2 | |
| 20260905193022 | 81 | 0.0 | 1.0 | 0.00 | 0.00 | 0.00 | 81 | 1013.3 | |
| 20260905192022 | 81 | 0.0 | 1.0 | 0.00 | 0.00 | 0.00 | 75 | 1013.0 | |
| 20260905191022 | 83 | 68 | 1.0 | 8.0 | 0.00 | 0.00 | 0.00 | 73 | 1013.4 |
| 20260905190020 | 86 | 68 | 1.0 | 3.0 | 0.00 | 0.00 | 0.00 | 68 | 1013.7 |
| 20260905185043 | 93 | 270 | 1.0 | 9.0 | 0.00 | 0.00 | 0.00 | 60 | 1013.4 |
| 20260905184022 | 96 | 0.0 | 3.0 | 0.00 | 0.00 | 0.00 | 59 | 1012.3 | |
| 20260905183022 | 98 | 0.0 | 2.0 | 0.00 | 0.00 | 0.00 | 54 | 1012.4 | |
| 20260905182022 | 98 | 0.0 | 4.0 | 0.00 | 0.00 | 0.00 | 56 | 1012.4 | |
| 20260905181022 | 98 | 0.0 | 2.0 | 0.00 | 0.00 | 0.00 | 56 | 1012.7 | |
| 20260905180024 | 97 | 0.0 | 3.0 | 0.00 | 0.00 | 0.00 | 55 | 1012.9 | |
| 20260905175022 | 97 | 315 | 1.0 | 3.0 | 0.00 | 0.00 | 0.00 | 53 | 1013.3 |
| 20260905174022 | 98 | 0.0 | 1.0 | 0.00 | 0.00 | 0.00 | 55 | 1013.5 | |
| 20260905173022 | 98 | 0.0 | 1.0 | 0.00 | 0.00 | 0.00 | 54 | 1013.8 | |
| 20260905172022 | 98 | 0.0 | 1.0 | 0.00 | 0.00 | 0.00 | 53 | 1014.0 | |
| 20260905171022 | 99 | 0.0 | 2.0 | 0.00 | 0.00 | 0.00 | 55 | 1014.2 | |
| 20260905170122 | 97 | 0.0 | 2.0 | 0.00 | 0.00 | 0.00 | 56 | 1014.3 | |
| 20260905165022 | 99 | 0.0 | 2.0 | 0.00 | 0.00 | 0.00 | 53 | 1014.4 | |
| 20260905164022 | 99 | 0.0 | 2.0 | 0.00 | 0.00 | 0.00 | 54 | 1014.6 | |
| 20260905163022 | 99 | 0.0 | 1.0 | 0.00 | 0.00 | 0.00 | 55 | 1014.7 | |
| 20260905162022 | 97 | 0.0 | 3.0 | 0.00 | 0.00 | 0.00 | 57 | 1014.8 | |
| 20260905161041 | 97 | 315 | 1.0 | 3.0 | 0.00 | 0.00 | 0.00 | 58 | 1014.8 |
| 20260905160022 | 98 | 0.0 | 4.0 | 0.00 | 0.00 | 0.00 | 55 | 1014.9 | |
| 20260905155022 | 97 | 0.0 | 1.0 | 0.00 | 0.00 | 0.00 | 57 | 1015.2 | |
| 20260905154022 | 98 | 0.0 | 4.0 | 0.00 | 0.00 | 0.00 | 54 | 1015.4 | |
| 20260905153022 | 97 | 0.0 | 2.0 | 0.00 | 0.00 | 0.00 | 58 | 1015.4 | |
| 20260905152043 | 96 | 0.0 | 3.0 | 0.00 | 0.00 | 0.00 | 59 | 1015.5 | |
| 20260905151023 | 95 | 0.0 | 1.0 | 0.00 | 0.00 | 0.00 | 60 | 1015.6 | |
| 20260905150042 | 94 | 293 | 1.0 | 6.0 | 0.00 | 0.00 | 0.00 | 63 | 1015.6 |
| 20260905145021 | 94 | 0.0 | 1.0 | 0.00 | 0.00 | 0.00 | 63 | 1015.5 | |
| 20260905144021 | 92 | 0.0 | 1.0 | 0.00 | 0.00 | 0.00 | 68 | 1015.5 | |
| 20260905143022 | 91 | 0.0 | 1.0 | 0.00 | 0.00 | 0.00 | 69 | 1015.5 | |
| 20260905142021 | 91 | 0.0 | 3.0 | 0.00 | 0.00 | 0.00 | 69 | 1015.5 | |
| 20260905141022 | 90 | 0.0 | 1.0 | 0.00 | 0.00 | 0.00 | 72 | 1015.4 | |
| 20260905140021 | 91 | 0.0 | 3.0 | 0.00 | 0.00 | 0.00 | 70 | 1015.3 | |
| 20260905135022 | 90 | 0.0 | 2.0 | 0.00 | 0.00 | 0.00 | 72 | 1015.4 | |
| 20260905134022 | 89 | 0.0 | 0.0 | 0.00 | 0.00 | 0.00 | 74 | 1015.4 | |
| 20260905133022 | 87 | 0.0 | 0.0 | 0.00 | 0.00 | 0.00 | 76 | 1015.3 | |
| 20260905132021 | 86 | 0.0 | 1.0 | 0.00 | 0.00 | 0.00 | 76 | 1015.2 | |
| 20260905131041 | 85 | 0.0 | 1.0 | 0.00 | 0.00 | 0.00 | 78 | 1015.2 | |
| 20260905130021 | 84 | 0.0 | 0.0 | 0.00 | 0.00 | 0.00 | 81 | 1015.3 | |
| 20260905125022 | 82 | 0.0 | 1.0 | 0.00 | 0.00 | 0.00 | 84 | 1015.4 | |
| 20260905124022 | 79 | 0.0 | 0.0 | 0.00 | 0.00 | 0.00 | 88 | 1015.4 | |
| 20260905123021 | 78 | 0.0 | 0.0 | 0.00 | 0.00 | 0.00 | 91 | 1015.4 | |
| 20260905122542 | 77 | 0.0 | 0.0 | 0.00 | 0.00 | 0.00 | 91 | 1015.5 | |
| 20260905121521 | 77 | 0.0 | 0.0 | 0.00 | 0.00 | 0.00 | 92 | 1015.4 | |
| 20260905120522 | 76 | 0.0 | 1.0 | 0.00 | 0.00 | 0.00 | 92 | 1015.5 | |
| 20260905115523 | 76 | 0.0 | 0.0 | 0.00 | 0.00 | 0.00 | 92 | 1015.5 | |
| 20260905114521 | 76 | 0.0 | 0.0 | 0.00 | 0.00 | 0.00 | 92 | 1015.5 | |
| 20260905113521 | 75 | 0.0 | 0.0 | 0.00 | 0.00 | 0.00 | 93 | 1015.3 | |
| 20260905112521 | 75 | 0.0 | 0.0 | 0.00 | 0.00 | 0.00 | 93 | 1015.0 | |
| 20260905111521 | 75 | 0.0 | 0.0 | 0.00 | 0.00 | 0.00 | 93 | 1015.0 | |
| 20260905110521 | 74 | 0.0 | 0.0 | 0.00 | 0.00 | 0.00 | 92 | 1014.9 | |
| 20260905105541 | 75 | 0.0 | 0.0 | 0.00 | 0.00 | 0.00 | 92 | 1015.0 | |
| 20260905104521 | 75 | 0.0 | 0.0 | 0.00 | 0.00 | 0.00 | 91 | 1014.8 | |
| 20260905103521 | 75 | 0.0 | 0.0 | 0.00 | 0.00 | 0.00 | 91 | 1014.7 | |
| 20260905102521 | 75 | 0.0 | 0.0 | 0.00 | 0.00 | 0.00 | 91 | 1014.8 | |
| 20260905101523 | 75 | 0.0 | 0.0 | 0.00 | 0.00 | 0.00 | 91 | 1014.7 | |
| 20260905100541 | 76 | 0.0 | 0.0 | 0.00 | 0.00 | 0.00 | 90 | 1014.8 | |
| 20260905095521 | 76 | 0.0 | 0.0 | 0.00 | 0.00 | 0.00 | 90 | 1014.4 | |
| 20260905094521 | 76 | 0.0 | 0.0 | 0.00 | 0.00 | 0.00 | 90 | 1014.5 | |
| 20260905093521 | 76 | 0.0 | 0.0 | 0.00 | 0.00 | 0.00 | 89 | 1014.5 | |
| 20260905092521 | 76 | 0.0 | 0.0 | 0.00 | 0.00 | 0.00 | 89 | 1014.5 | |
| 20260905091541 | 77 | 0.0 | 0.0 | 0.00 | 0.00 | 0.00 | 88 | 1014.4 | |
| 20260905090521 | 77 | 0.0 | 0.0 | 0.00 | 0.00 | 0.00 | 88 | 1014.6 | |
| 20260905085520 | 77 | 0.0 | 0.0 | 0.00 | 0.00 | 0.00 | 87 | 1014.8 | |
| 20260905084521 | 77 | 0.0 | 0.0 | 0.00 | 0.00 | 0.00 | 87 | 1014.9 | |
| 20260905083541 | 77 | 0.0 | 0.0 | 0.00 | 0.00 | 0.00 | 87 | 1015.1 | |
| 20260905082521 | 77 | 0.0 | 0.0 | 0.00 | 0.00 | 0.00 | 86 | 1015.1 | |
| 20260905081621 | 77 | 0.0 | 0.0 | 0.00 | 0.00 | 0.00 | 86 | 1015.3 | |
| 20260905080521 | 78 | 0.0 | 0.0 | 0.00 | 0.00 | 0.00 | 86 | 1015.4 | |
| 20260905075521 | 78 | 0.0 | 0.0 | 0.00 | 0.00 | 0.00 | 85 | 1015.7 | |
| 20260905074521 | 78 | 0.0 | 0.0 | 0.00 | 0.00 | 0.00 | 85 | 1015.7 | |
| 20260905073520 | 78 | 0.0 | 0.0 | 0.00 | 0.00 | 0.00 | 85 | 1015.7 | |
| 20260905072521 | 78 | 0.0 | 0.0 | 0.00 | 0.00 | 0.00 | 84 | 1015.7 | |
| 20260905071521 | 78 | 0.0 | 0.0 | 0.00 | 0.00 | 0.00 | 84 | 1015.9 | |
| 20260905070521 | 78 | 0.0 | 1.0 | 0.00 | 0.00 | 0.00 | 84 | 1015.9 | |
| 20260905065520 | 79 | 0.0 | 0.0 | 0.00 | 0.00 | 0.00 | 84 | 1015.9 | |
| 20260905064651 | 79 | 0.0 | 0.0 | 0.00 | 0.00 | 0.00 | 84 | 1016.1 | |
| 20260905064041 | 79 | 0.0 | 0.0 | 0.00 | 0.00 | 0.00 | 83 | 1016.2 | |
| 20260905063021 | 79 | 0.0 | 0.0 | 0.00 | 0.00 | 0.00 | 83 | 1016.4 | |
| 20260905062021 | 79 | 0.0 | 0.0 | 0.00 | 0.00 | 0.00 | 83 | 1016.4 | |
| 20260905061021 | 79 | 0.0 | 0.0 | 0.00 | 0.00 | 0.00 | 83 | 1016.5 | |
| 20260905060022 | 79 | 0.0 | 0.0 | 0.00 | 0.00 | 0.00 | 83 | 1016.9 | |
| 20260905055021 | 80 | 0.0 | 0.0 | 0.00 | 0.00 | 0.00 | 82 | 1016.9 | |
| 20260905054021 | 80 | 0.0 | 0.0 | 0.00 | 0.00 | 0.00 | 82 | 1017.2 | |
| 20260905053102 | 80 | 0.0 | 0.0 | 0.00 | 0.00 | 0.00 | 82 | 1017.4 | |
| 20260905052042 | 80 | 0.0 | 0.0 | 0.00 | 0.00 | 0.00 | 81 | 1017.4 | |
| 20260905051021 | 80 | 0.0 | 0.0 | 0.00 | 0.00 | 0.00 | 81 | 1017.6 | |
| 20260905050021 | 80 | 0.0 | 1.0 | 0.00 | 0.00 | 0.00 | 81 | 1017.7 | |
| 20260905045042 | 80 | 0.0 | 2.0 | 0.00 | 0.00 | 0.00 | 82 | 1017.9 | |
| 20260905044021 | 80 | 0.0 | 1.0 | 0.00 | 0.00 | 0.00 | 83 | 1018.0 | |
| 20260905043041 | 81 | 0.0 | 0.0 | 0.00 | 0.00 | 0.00 | 83 | 1018.0 | |
| 20260905042041 | 81 | 0.0 | 1.0 | 0.00 | 0.00 | 0.00 | 82 | 1018.1 | |
| 20260905041021 | 81 | 0.0 | 1.0 | 0.00 | 0.00 | 0.00 | 82 | 1018.1 | |
| 20260905040104 | 81 | 0.0 | 0.0 | 0.00 | 0.00 | 0.00 | 82 | 1018.2 | |
| 20260905035020 | 81 | 0.0 | 1.0 | 0.00 | 0.00 | 0.00 | 81 | 1017.9 | |
| 20260905034020 | 81 | 0.0 | 2.0 | 0.00 | 0.00 | 0.00 | 81 | 1018.1 | |
| 20260905033042 | 82 | 45 | 1.0 | 5.0 | 0.00 | 0.00 | 0.00 | 80 | 1018.2 |
| 20260905032022 | 82 | 0.0 | 3.0 | 0.00 | 0.00 | 0.00 | 79 | 1018.0 | |
| 20260905031020 | 82 | 0.0 | 2.0 | 0.00 | 0.00 | 0.00 | 78 | 1017.6 | |
| 20260905030040 | 83 | 0.0 | 2.0 | 0.00 | 0.00 | 0.00 | 77 | 1017.8 | |
| 20260905025022 | 83 | 0.0 | 3.0 | 0.00 | 0.00 | 0.00 | 75 | 1017.9 | |
| 20260905024022 | 83 | 0.0 | 0.0 | 0.00 | 0.00 | 0.00 | 73 | 1017.8 | |
| 20260905023020 | 83 | 0.0 | 0.0 | 0.00 | 0.00 | 0.00 | 73 | 1018.1 | |
| 20260905022020 | 83 | 0.0 | 0.0 | 0.00 | 0.00 | 0.00 | 72 | 1017.8 | |
| 20260905021022 | 83 | 0.0 | 0.0 | 0.00 | 0.00 | 0.00 | 71 | 1017.8 | |
| 20260905020022 | 84 | 0.0 | 0.0 | 0.00 | 0.00 | 0.00 | 70 | 1017.8 | |
| 20260905015042 | 84 | 0.0 | 0.0 | 0.00 | 0.00 | 0.00 | 70 | 1017.8 | |
| 20260905014022 | 84 | 0.0 | 0.0 | 0.00 | 0.00 | 0.00 | 69 | 1017.9 | |
| 20260905013042 | 84 | 0.0 | 1.0 | 0.00 | 0.00 | 0.00 | 69 | 1018.0 | |
| 20260905012022 | 84 | 0.0 | 1.0 | 0.00 | 0.00 | 0.00 | 68 | 1017.6 | |
| 20260905011020 | 84 | 0.0 | 0.0 | 0.00 | 0.00 | 0.00 | 67 | 1016.6 | |
| 20260905010022 | 84 | 0.0 | 1.0 | 0.00 | 0.00 | 0.00 | 67 | 1016.2 | |
| 20260905005022 | 85 | 0.0 | 5.0 | 0.00 | 0.00 | 0.00 | 66 | 1015.5 | |
| 20260905004022 | 85 | 315 | 1.0 | 9.0 | 0.00 | 0.00 | 0.00 | 65 | 1015.5 |
| 20260905003022 | 86 | 293 | 1.0 | 6.0 | 0.00 | 0.00 | 0.00 | 65 | 1015.5 |
| 20260905002022 | 86 | 0.0 | 1.0 | 0.00 | 0.00 | 0.00 | 66 | 1015.7 | |
| 20260905001022 | 87 | 270 | 2.0 | 6.0 | 0.00 | 0.00 | 0.00 | 66 | 1015.5 |
| 20260905000022 | 88 | 315 | 1.0 | 5.0 | 0.00 | 0.00 | 0.00 | 67 | 1015.8 |
| 20260904235022 | 88 | 293 | 1.0 | 9.0 | 0.00 | 0.00 | 0.00 | 67 | 1015.9 |
| 20260904234022 | 89 | 270 | 1.0 | 7.0 | 0.00 | 0.00 | 0.00 | 68 | 1016.0 |
| 20260904233042 | 90 | 315 | 1.0 | 3.0 | 0.00 | 0.00 | 0.00 | 69 | 1016.2 |
| 20260904232022 | 90 | 0.0 | 1.0 | 0.00 | 0.00 | 0.00 | 68 | 1016.2 | |
| 20260904231022 | 90 | 0.0 | 1.0 | 0.00 | 0.00 | 0.00 | 67 | 1016.0 | |
| 20260904230021 | 91 | 0.0 | 2.0 | 0.00 | 0.00 | 0.00 | 66 | 1015.7 | |
| 20260904225044 | 91 | 0.0 | 1.0 | 0.00 | 0.00 | 0.00 | 66 | 1015.6 | |
| 20260904224022 | 92 | 0.0 | 1.0 | 0.00 | 0.00 | 0.00 | 65 | 1015.5 | |
| 20260904223022 | 92 | 0.0 | 4.0 | 0.00 | 0.00 | 0.00 | 65 | 1015.7 | |
| 20260904222101 | 93 | 0.0 | 4.0 | 0.00 | 0.00 | 0.00 | 64 | 1015.9 | |
| 20260904221022 | 94 | 0.0 | 3.0 | 0.00 | 0.00 | 0.00 | 63 | 1015.5 | |
| 20260904220022 | 94 | 0.0 | 1.0 | 0.00 | 0.00 | 0.00 | 63 | 1015.5 | |
| 20260904215023 | 94 | 0.0 | 0.0 | 0.00 | 0.00 | 0.00 | 63 | 1015.7 | |
| 20260904214142 | 95 | 0.0 | 2.0 | 0.00 | 0.00 | 0.00 | 62 | 1015.7 | |
| 20260904213041 | 95 | 0.0 | 1.0 | 0.00 | 0.00 | 0.00 | 61 | 1015.6 | |
| 20260904212021 | 95 | 0.0 | 0.0 | 0.00 | 0.00 | 0.00 | 61 | 1015.6 | |
| 20260904211021 | 96 | 0.0 | 1.0 | 0.00 | 0.00 | 0.00 | 60 | 1015.6 | |
| 20260904210203 | 96 | 0.0 | 1.0 | 0.00 | 0.00 | 0.00 | 60 | 1015.3 | |
| 20260904205521 | 97 | 0.0 | 1.0 | 0.00 | 0.00 | 0.00 | 60 | 1015.3 | |
| 20260904204522 | 97 | 0.0 | 3.0 | 0.00 | 0.00 | 0.00 | 59 | 1015.1 | |
| 20260904203521 | 98 | 0.0 | 3.0 | 0.00 | 0.00 | 0.00 | 58 | 1015.1 | |
| 20260904202521 | 99 | 45 | 1.0 | 4.0 | 0.00 | 0.00 | 0.00 | 57 | 1015.2 |
| 20260904201521 | 100 | 0.0 | 3.0 | 0.00 | 0.00 | 0.00 | 56 | 1015.3 |